Location: DARK SKY Beskydy - Park tmavé oblohy, www.darkskybeskydy.cz
(49.4926°N, 18.5016°E)
Time: 13:50:30
(UTC+02:00)

Vanguard 2 Rocket - Visible Passes

Search period start: 24 July 2024 00:00
Search period end: 03 August 2024 00:00
Orbit: 555 x 3302 km, 32.9° (Epoch: 23 July)

Date Brightness Start Highest point End Pass type
(mag) Time Alt. Az. Time Alt. Az. Time Alt. Az.
24 Jul 9.6 00:07:39 10° SW 00:09:47 13° SSW 00:09:47 13° SSW visible
24 Jul 9.3 23:04:48 10° SW 23:09:09 15° SSW 23:09:56 15° S visible
25 Jul 9.0 22:02:35 10° SW 22:06:29 16° S 22:10:11 12° SSE visible
27 Jul 9.2 22:12:15 10° SSW 22:13:52 11° SSW 22:15:38 10° S visible
28 Jul 9.0 21:09:46 10° SSW 21:11:24 11° S 21:13:12 10° S visible
